Weather History for KDDH - October, 2011

Change the Weather History Date:

Tuesday, October 4, 2011

  Actual Average Record
Temperature  
Mean Temperature 54 °F 52 °F  
Max Temperature 60 °F 63 °F 78 °F (2001)
Min Temperature 48 °F 40 °F 36 °F (2003)
Degree Days  
Heating Degree Days 11 13  
Month to date heating degree days 51  
Since 1 July heating degree days 329  
Cooling Degree Days 0 0  
Month to date cooling degree days 0  
Year to date cooling degree days 311  
Growing Degree Days 4 (Base 50)    
Moisture  
Dew Point 49 °F    
Average Humidity 88    
Maximum Humidity 100    
Minimum Humidity 72    
Precipitation  
Precipitation 0.09 in 0.12 in 0.67 in (2013)
Month to date precipitation 0.51  
Year to date precipitation 31.62  
Sea Level Pressure  
Sea Level Pressure 30.02 in    
Wind  
Wind Speed 2 mph (NNW)    
Max Wind Speed 9 mph    
Max Gust Speed -    
Visibility 9 miles    
Events Rain    
T = Trace of Precipitation, MM = Missing Value Source: NWS Daily Summary

Daily Weather History Graph

Daily Weather History Graph

Search for Another Location

Airport or City:

Trip Planner

Search our weather history database for the weather conditions in past years. The results will help you decide how hot, cold, wet, or windy it might be!

Date:

Astronomy

Oct. 04, 2011 Rise Set
Actual Time 6:53 AM EDT 6:29 PM EDT
Civil Twilight 6:25 AM EDT 6:57 PM EDT
Nautical Twilight 5:52 AM EDT 7:30 PM EDT
Astronomical Twilight 5:19 AM EDT 8:03 PM EDT
Moon 2:38 PM EDT (10/4) No Moon Set
Length of Visible Light 12h 32m
Length of Day
11h 36m
First Quarter, 56% of the Moon is Illuminated
Oct 4
First Quarter
Oct 11
Full
Oct 19
Last Quarter
Oct 26
New
Nov 2
First Quarter

Hourly Weather History & Observations

Time (EDT) Temp. Dew Point Humidity Pressure Visibility Wind Dir Wind Speed Gust Speed Precip Events Conditions
12:54 AM 48.0 °F 46.9 °F 96% 30.05 in 7.0 mi Calm Calm - N/A   Overcast
1:54 AM 48.0 °F 46.9 °F 96% 30.03 in 7.0 mi Calm Calm - 0.00 in   Overcast
2:54 AM 48.9 °F 48.0 °F 97% 30.03 in 2.5 mi Calm Calm - N/A   Overcast
3:02 AM 48.2 °F 48.2 °F 100% 30.03 in 8.0 mi Calm Calm - N/A   Overcast
3:54 AM 50.0 °F 48.0 °F 93% 30.03 in 10.0 mi Calm Calm - N/A   Overcast
4:54 AM 50.0 °F 48.0 °F 93% 30.02 in 10.0 mi Calm Calm - 0.02 in Rain Light Rain
5:54 AM 50.0 °F 48.0 °F 93% 30.02 in 8.0 mi NNE 3.5 mph - 0.02 in Rain Light Rain
6:54 AM 50.0 °F 48.0 °F 93% 30.03 in 10.0 mi Calm Calm - 0.01 in   Overcast
7:19 AM 50.0 °F 48.2 °F 94% 30.03 in 8.0 mi Calm Calm - N/A   Overcast
7:31 AM 50.0 °F 48.2 °F 94% 30.03 in 7.0 mi Calm Calm - N/A   Overcast
7:39 AM 50.0 °F 48.2 °F 94% 30.03 in 5.0 mi Calm Calm - 0.01 in Rain Light Rain
7:52 AM 50.0 °F 48.2 °F 94% 30.03 in 3.0 mi Calm Calm - 0.02 in Rain Light Rain
7:54 AM 50.0 °F 48.9 °F 96% 30.04 in 4.0 mi Calm Calm - 0.02 in Rain Light Rain
8:54 AM 51.1 °F 48.9 °F 92% 30.05 in 10.0 mi Calm Calm - 0.00 in Rain Light Rain
9:09 AM 51.8 °F 48.2 °F 88% 30.04 in 6.0 mi Calm Calm - 0.00 in   Overcast
9:54 AM 52.0 °F 48.9 °F 89% 30.05 in 10.0 mi Calm Calm - 0.01 in Rain Light Rain
10:44 AM 51.8 °F 50.0 °F 94% 30.04 in 10.0 mi Calm Calm - 0.01 in Rain Light Rain
10:54 AM 52.0 °F 48.9 °F 89% 30.04 in 10.0 mi Calm Calm - 0.01 in   Overcast
11:29 AM 53.6 °F 50.0 °F 88% 30.03 in 10.0 mi WNW 3.5 mph - N/A   Overcast
12:28 PM 55.4 °F 51.8 °F 88% 30.02 in 10.0 mi NNW 5.8 mph - N/A   Overcast
12:54 PM 57.0 °F 51.1 °F 81% 30.02 in 10.0 mi NNW 4.6 mph - N/A   Overcast
3:54 PM 60.1 °F 51.1 °F 72% 29.99 in 10.0 mi North 5.8 mph - N/A   Overcast
4:54 PM 60.1 °F 51.1 °F 72% 29.99 in 10.0 mi NNW 5.8 mph - N/A   Overcast
5:54 PM 59.0 °F 51.1 °F 75% 29.99 in 10.0 mi NNW 3.5 mph - N/A   Overcast
6:54 PM 55.9 °F 50.0 °F 80% 30.00 in 10.0 mi NW 6.9 mph - N/A   Mostly Cloudy
7:54 PM 55.9 °F 48.9 °F 77% 30.01 in 10.0 mi NW 5.8 mph - N/A   Overcast
8:12 PM 55.4 °F 50.0 °F 82% 30.01 in 10.0 mi NNW 5.8 mph - N/A   Overcast
8:19 PM 55.4 °F 50.0 °F 82% 30.01 in 10.0 mi Variable 5.8 mph - N/A   Overcast
8:40 PM 55.4 °F 50.0 °F 82% 30.01 in 10.0 mi Variable 5.8 mph - N/A   Overcast
8:54 PM 55.9 °F 50.0 °F 80% 30.02 in 10.0 mi Variable 3.5 mph - N/A   Overcast
9:54 PM 55.9 °F 50.0 °F 80% 30.02 in 10.0 mi North 5.8 mph - N/A   Overcast
10:54 PM 55.9 °F 51.1 °F 84% 30.01 in 10.0 mi Variable 4.6 mph - N/A   Overcast
11:54 PM 55.0 °F 51.1 °F 86% 30.02 in 10.0 mi NNW 9.2 mph - N/A   Overcast